Location: Agadir Irigdalene
(31.2522°N, 8.7797°W)
Time: 16:31:34
(UTC+00:00)

Cosmos 1939 Rocket - Pass Details

Date: 01 December 2020
Orbit: 532 x 584 km, 97.4° (Epoch: 25 January)

Event Time Altitude Azimuth Distance (km) Brightness Sun altitude
Rises 19:01:53 0° 176° (S) 2,661 6.5 -18.8°
Reaches altitude 10° 19:04:00 10° 181° (S) 1,777 5.6 -19.3°
Maximum altitude 19:07:46 57° 260° (W) 635 3.4 -20.1°
Drops below altitude 10° 19:11:36 10° 340° (NNW) 1,807 5.5 -20.9°
Sets 19:13:46 0° 344° (NNW) 2,711 6.4 -21.3°
